Tracking 19145 objects as of 25-Apr-2018
HD Live streaming from Space Station
objects crossing your sky now

FENGYUN 1C DEB

Track FENGYUN 1C DEB now!
10-day predictions


NORAD ID: 36259
Int'l Code: 1999-025DWL
Perigee: 812.9 km
Apogee: 819.3 km
Inclination: 98.9 °
Period: 101.1 minutes
Semi major axis: 7187 km
RCS: 0.0025 m2 (small)
Launch date: May 10, 1999
Source: People's Republic of China (PRC)
Launch site: Taiyaun Space Center, China (TSC)

Note: This is SATELLITE DEBRIS
aabbcc
Your satellite tracking list
Your tracking list is empty




NASA's NSSDC Master Catalog

Two Line Element Set (TLE):
1 36259U 99025DWL 18112.59694083 +.00001187 +00000-0 +52816-3 0  9999
2 36259 098.8641 157.4302 0004454 169.7773 343.0825 14.24847566322012
Source of the keplerian elements: AFSPC